Regional Weather Roundup
Issued by NWS

Home | Current Version | Previous Version | Graphics & Text | Print | Product List | Glossary On
Versions: 1 2 3 4 5 6 7 8 9 10 11 12 13 14 15 16 17 18 19 20 21 22 23 24 25 26 27 28 29 30 31 32 33 34 35 36 37 38 39 40 41 42 43 44 45 46 47 48 49 50
000
ASUS43 KLOT 191203
RWRIL

ILLINOIS REGIONAL WEATHER ROUNDUP
NATIONAL WEATHER SERVICE CHICAGO/ROMEOVILLE IL
600 AM CST MON FEB 19 2018

NOTE: "FAIR" INDICATES FEW OR NO CLOUDS BELOW 12,000 FEET WITH NO
SIGNIFICANT WEATHER AND/OR OBSTRUCTIONS TO VISIBILITY.

* THESE STATIONS ARE NOT UNDER NWS QUALITY CONTROL. THEY ALSO MAY NOT
  REPORT WEATHER SUCH AS PRECIPITATION OR FOG.

ILZ001-002-007-009-015-016-024-191300-
NORTHWEST ILLINOIS

CITY           SKY/WX    TMP DP  RH WIND       PRES   REMARKS
MOLINE         CLOUDY    43  40  89 S7        29.76S
6HR MIN TEMP:  38; 6HR MAX TEMP:  44;

STERLING*      CLOUDY    36  35  96 SE3       29.82S
SAVANNA*       MOCLDY    36  35  96 E5        29.79F WCI  32
$$

ILZ003-004-008-010-011-017-018-191300-
NORTH CENTRAL ILLINOIS

CITY           SKY/WX    TMP DP  RH WIND       PRES   REMARKS
ROCKFORD       CLOUDY    36  34  92 SE6       29.86R WCI  31
6HR MIN TEMP:  34; 6HR MAX TEMP:  37;

FREEPORT*      FAIR      36  35  95 S7        29.83R WCI  30
ROCHELLE*      FAIR      35  35  99 SE10      29.84S FOG     WCI  27
DE KALB*       FOG       36  35  99 S10       29.86R VSB 3/4 WCI  28
PERU*          CLOUDY    38  36  92 S13       29.85R WCI  30
$$

ILZ005-006-012>014-019>023-191300-
NORTHEAST ILLINOIS

CITY           SKY/WX    TMP DP  RH WIND       PRES   REMARKS
CHICAGO-OHARE  CLOUDY    39  37  92 S9        29.88R FOG     WCI  33
6HR MIN TEMP:  38; 6HR MAX TEMP:  40; 6HR PCP: TRACE;

CHICAGO-MIDWAY CLOUDY    40  39  97 S8        29.88R
6HR MIN TEMP:  39; 6HR MAX TEMP:  42; 6HR PCP: TRACE;

AURORA         FOG       36  36 100 SE6       29.86R VSB 1/4 WCI  31
6HR MIN TEMP:  35; 6HR MAX TEMP:  37; 6HR PCP: TRACE;

LANSING*       CLOUDY    37  37 100 S5        29.92R FOG     WCI  33
JOLIET*        CLOUDY    40  40 100 SE8       29.88F FOG
WAUKEGAN       MOCLDY    38  36  92 S9        29.85R FOG     WCI  31
6HR MIN TEMP:  37; 6HR MAX TEMP:  41;

DUPAGE AIRPORT FOG       37  37 100 SE7       29.85S VSB 1/4 WCI  32
6HR MIN TEMP:  36; 6HR MAX TEMP:  38;

KANKAKEE*      LGT RAIN  43  43  98 S8        29.91F
WHEELING       CLOUDY    40  38  93 S12       29.91R
6HR MIN TEMP:  39; 6HR MAX TEMP:  41; 6HR PCP: TRACE;

MORRIS*        CLOUDY    37  36  98 S8        29.86F FOG     WCI  30
ROMEOVILLE*    CLOUDY    37  37 100 SE10      29.87S FOG     WCI  29
NORTHERLY ISL    N/A     40  38  93 S12         N/A
$$

LMZ740>746-191300-
SOUTHERN LAKE MICHIGAN

STATION/POSITION SKY/WX   TEMP    WIND        PRES    VSBY  WAVE
                          AIR SEA DIR/SP/G                  HT/PER
                          (F)     (DEG/KT/KT) (MB)    (MI)  (FT/S)
HARRISON CRIB              40     180/ 16/ 16   N/A
BURNHAM HARBOR             40     180/  5/ 10   N/A
CALUMET HARBOR             39     170/  6/  9 1012.2R
BURNS HARBOR               40     180/ 12/ 18 1013.9R
MICHIGAN CITY              40     170/ 16/ 19   N/A
$$

ILZ025>027-034>036-040-047-049-050-058-095>099-191300-
WEST-CENTRAL ILLINOIS

CITY           SKY/WX    TMP DP  RH WIND       PRES   REMARKS
QUINCY         CLOUDY    49  49 100 SE12      29.74F FOG
GALESBURG*     DRIZZLE   43  43 100 E3        29.80F
MACOMB*        LGT RAIN  43  43  99 SE9       29.80F
JACKSONVILLE*  CLOUDY    51  49  93 SE12      29.80F
PITTSFIELD*    CLOUDY    51  49  95 SE8       29.78F
$$

ILZ028>032-037-038-041>044-048-051>054-059>061-191300-
CENTRAL ILLINOIS

CITY           SKY/WX    TMP DP  RH WIND       PRES   REMARKS
BLOOMINGTON    LGT RAIN  46  46 100 S9        29.86F FOG
DECATUR        CLOUDY    46  32  58 SE6       29.88F THUNDER HAZE
PEORIA         LGT RAIN  46  45  96 SE8       29.83F FOG
6HR MIN TEMP:  41; 6HR MAX TEMP:  46; 6HR PCP:  0.20;

LACON*         RAIN      43  43  99 SE7       29.82F
LINCOLN*       DRIZZLE   49  49 100 S9        29.84F
SPRINGFIELD    LGT RAIN  52  51  97 S13       29.84F FOG
6HR MIN TEMP:  48; 6HR MAX TEMP:  52; 6HR PCP:  0.08;

TAYLORVILLE    CLOUDY    52  51  98 S13       29.86F THUNDER
6HR MIN TEMP:  47; 6HR MAX TEMP:  52; 6HR PCP:  0.07;

$$

ILZ033-039-045-046-055>057-062-063-191300-
EAST-CENTRAL ILLINOIS

CITY           SKY/WX    TMP DP  RH WIND       PRES   REMARKS
CHAMPAIGN      LGT RAIN  46  46 100 S14       29.89F FOG
DANVILLE*      LGT RAIN  49  48  99 S16       29.90S
RANTOUL*       LGT RAIN  49  48  99 S12       29.90F
MATTOON        CLOUDY    51  50  96 S14G22    29.90F FOG
PARIS*         CLOUDY    49  48  98 S5        29.95F
$$

ILZ079-100>102-191300-
SOUTHWEST ILLINOIS

CITY           SKY/WX    TMP DP  RH WIND       PRES   REMARKS
ALTON          CLOUDY    56  55  96 S18G26    29.85F
BELLEVILLE     CLOUDY    56  54  92 SW17      29.87F
CAHOKIA*       LGT RAIN  58  54  86 S13G24    29.87S
SPARTA*        CLOUDY    54  54 100 S14G23    29.94S
$$

ILZ064>066-069>071-074>076-080>082-084>086-088>090-092>094-191300-
SOUTH-CENTRAL ILLINOIS

CITY           SKY/WX    TMP DP  RH WIND       PRES   REMARKS
CARBONDALE     CLOUDY    59  58  96 S21G31    29.97S
6HR MIN TEMP:  52; 6HR MAX TEMP:  59; 6HR PCP: TRACE;

CAIRO*         FAIR      57  55  94 S12G18    30.04R
EFFINGHAM*     LGT RAIN  55  55 100 SE13G18   29.93F
MARION         CLOUDY    58  57  98 S21G29    29.99S
MT. VERNON     CLOUDY    57  56  96 S17       29.95S
CENTRALIA*     LGT RAIN  58  57  96 S20G25    29.93R
SALEM*         CLOUDY    59  56  90 S20G25    29.93R
METROPOLIS*    CLOUDY    59  56  89 S10G17    30.04F
$$

ILZ067-068-072-073-078-083-087-091-191300-
SOUTHEAST ILLINOIS

CITY           SKY/WX    TMP DP  RH WIND       PRES   REMARKS
LAWRENCEVILLE  CLOUDY    57  54  89 S20G30    29.98S
FLORA*         CLOUDY    58  56  93 S18G29    29.95S
FAIRFIELD*     CLOUDY    57  57  98 S10       29.96F
HARRISBURG*    CLOUDY    60  57  91 S21G28    30.00R
ROBINSON*      CLOUDY    54  53  97 S14       29.97S
CARMI*         CLOUDY    57  56  94 S17G23    30.00S
$$

ABBREVIATIONS USED IN REMARKS
   TC - TEMPERATURE IN CELSIUS
  WCI - WIND CHILL INDEX
   HX - HEAT INDEX
  VSB - VISIBILITY
$$





USA.gov is the U.S. government's official web portal to all federal, state and local government web resources and services.